Regional Weather Roundup
Issued by NWS Bismarck, ND

Home | Current Version | Previous Version | Text Only | Print | Product List | Glossary On
Versions: 1 2 3 4 5 6 7 8 9 10 11 12 13 14 15 16 17 18 19 20 21 22 23 24 25 26 27 28 29 30 31 32 33 34 35 36 37 38 39 40 41 42 43 44 45 46 47 48 49 50
000
ASUS43 KBIS 011402
RWRBIS

NWR BROADCAST TEXT
NATIONAL WEATHER SERVICE BISMARCK ND
900 AM CDT SAT AUG 01 2015

NOTE: "FAIR" INDICATES FEW OR NO CLOUDS BELOW 12,000 FEET WITH NO
SIGNIFICANT WEATHER AND/OR OBSTRUCTIONS TO VISIBILITY.


CITY           SKY/WX    TMP DP  RH WIND       PRES   REMARKS
WILLISTON      SUNNY     70  55  59 S3        29.93F
MINOT          SUNNY     66  52  60 SE5       29.91F
MINOT AFB      NOT AVBL
BISMARCK       MOSUNNY   67  59  75 E5        29.90F
DICKINSON      SUNNY     66  52  60 NW12      29.93R
GARRISON         N/A     68  58  70 E3        29.92S
HETTINGER ARPT SUNNY     73  53  49 W9        29.96S
JAMESTOWN      MOSUNNY   70  59  68 SE6       29.94F
HAZEN          FAIR      64  55  72 CALM      29.91F
STANLEY        FAIR      63  61  94 S5        29.94F
$$

CITY           SKY/WX    TMP DP  RH WIND       PRES   REMARKS
GRAND FORKS    MOSUNNY   70  56  61 W5        29.92F
GRAND FORKS AF NOT AVBL
DEVILS LAKE    MOSUNNY   70  54  56 S5        29.92F
FARGO          SUNNY     69  54  58 CALM      29.95F
CAVALIER       FAIR      70  55  60 SW5       29.90F
GRAFTON        FAIR      66  57  72 W5        29.93S
GWINNER        FAIR      72  63  73 CALM      29.97S
LANGDON        FAIR      66  55  68 CALM      29.94F
$$

CITY           SKY/WX    TMP DP  RH WIND       PRES   REMARKS
ABERDEEN       SUNNY     68  60  75 SE5       29.95F
MOBRIDGE       MOSUNNY   72  63  73 SE8       29.91S
BUFFALO          N/A     72  54  53 W7        29.93S
RAPID CITY     MOSUNNY   72  58  61 S6        30.01S
GLASGOW        SUNNY     65  51  60 SE15      29.92F
SIDNEY         SUNNY    N/A N/A N/A CALM      29.93F
WOLF POINT     SUNNY     64  52  64 CALM      29.95S
GLENDIVE       SUNNY     64  52  63 E3        29.97S
MILES CITY     SUNNY     69  43  38 W5        29.98S
BAKER          SUNNY     73  50  44 W5        29.99F
$$

CITY           SKY/WX    TMP DP  RH WIND       PRES   REMARKS
BILLINGS       MOSUNNY   64  37  36 SW15      30.08S
GREAT FALLS    SUNNY     70  36  28 SW7       30.04S
$$



USA.gov is the U.S. government's official web portal to all federal, state and local government web resources and services.